FNE1002 SASA-SAEZ

Flight info

Callsign FNE1002
Flight time 1h 41m
Altitude 41000
Route VUL1 PONPI UT681 PUBER UL550 ROS DCT SNT SNT7U
Aircraft B738/M-SDE2E3FGHIRWXY/LB1

Departure

Time 2026-05-07 00:08
Airport Martín Miguel de Güemes International Airport (SASA)

Arrival

Time 2026-05-07 01:49
Airport Ezeiza International Airport - Ministro Pistarini (SAEZ)
Time Latitude Longitude Altitude Speed Heading
2026-05-06 23:58 -24.84541 -65.47951 4046 ft 0 kts 22°
2026-05-07 00:04 -24.84540 -65.47950 4016 ft 1 kts 22°
2026-05-07 00:04 -24.84537 -65.47949 4016 ft 0 kts 22°
2026-05-07 00:05 -24.84535 -65.47948 4017 ft 3 kts 22°
2026-05-07 00:06 -24.84500 -65.47956 4016 ft 7 kts 304°
2026-05-07 00:06 -24.84520 -65.48046 4016 ft 16 kts 248°
2026-05-07 00:06 -24.84557 -65.48174 4016 ft 18 kts 254°
2026-05-07 00:06 -24.84597 -65.48294 4016 ft 15 kts 242°
2026-05-07 00:07 -24.84651 -65.48389 4013 ft 15 kts 221°
2026-05-07 00:07 -24.84736 -65.48446 4017 ft 16 kts 193°
2026-05-07 00:07 -24.85184 -65.48540 4017 ft 120 kts 192°
2026-05-07 00:07 -24.86231 -65.48815 4491 ft 176 kts 195°
2026-05-07 00:08 -24.87479 -65.49182 5722 ft 186 kts 191°
2026-05-07 00:08 -24.88779 -65.49387 7005 ft 193 kts 190°
2026-05-07 00:08 -24.90191 -65.49638 7684 ft 218 kts 191°
2026-05-07 00:08 -24.91805 -65.49955 7958 ft 252 kts 192°
2026-05-07 00:09 -24.93576 -65.50318 8447 ft 268 kts 192°
2026-05-07 00:09 -24.95030 -65.50617 9081 ft 272 kts 191°
2026-05-07 00:09 -24.96954 -65.50592 9839 ft 288 kts 169°
2026-05-07 00:09 -24.98903 -65.49772 10293 ft 317 kts 150°
2026-05-07 00:10 -25.00726 -65.48255 10637 ft 343 kts 142°
2026-05-07 00:10 -25.02598 -65.46551 11400 ft 352 kts 143°
2026-05-07 00:10 -25.04705 -65.45200 12245 ft 352 kts 165°
2026-05-07 00:10 -25.07098 -65.44617 13206 ft 351 kts 174°
2026-05-07 00:11 -25.09488 -65.44168 14102 ft 355 kts 174°
2026-05-07 00:11 -25.11984 -65.43718 14929 ft 361 kts 174°
2026-05-07 00:11 -25.14451 -65.43272 15734 ft 366 kts 174°
2026-05-07 00:11 -25.16982 -65.42806 16582 ft 371 kts 174°
2026-05-07 00:12 -25.19574 -65.42320 17452 ft 376 kts 174°
2026-05-07 00:12 -25.22174 -65.41828 18275 ft 381 kts 174°
2026-05-07 00:12 -25.24766 -65.41333 18979 ft 387 kts 174°
2026-05-07 00:12 -25.27457 -65.40816 19715 ft 393 kts 174°
2026-05-07 00:13 -25.30158 -65.40297 20435 ft 398 kts 175°
2026-05-07 00:13 -25.32908 -65.39767 21166 ft 404 kts 175°
2026-05-07 00:13 -25.35708 -65.39228 21875 ft 410 kts 176°
2026-05-07 00:13 -25.38535 -65.38683 22556 ft 416 kts 176°
2026-05-07 00:14 -25.41425 -65.38126 23255 ft 421 kts 176°
2026-05-07 00:14 -25.44326 -65.37566 23828 ft 427 kts 176°
2026-05-07 00:14 -25.47267 -65.36998 24408 ft 431 kts 177°
2026-05-07 00:14 -25.50238 -65.36422 25001 ft 435 kts 177°
2026-05-07 00:15 -25.53201 -65.35849 25574 ft 440 kts 177°
2026-05-07 00:15 -25.56228 -65.35262 26143 ft 444 kts 178°
2026-05-07 00:15 -25.59313 -65.34665 26661 ft 449 kts 178°
2026-05-07 00:15 -25.62403 -65.34066 27188 ft 453 kts 178°
2026-05-07 00:16 -25.65497 -65.33467 27649 ft 458 kts 178°
2026-05-07 00:16 -25.68642 -65.32856 28168 ft 462 kts 178°
2026-05-07 00:16 -25.71824 -65.32237 28686 ft 465 kts 179°
2026-05-07 00:16 -25.75024 -65.31615 29173 ft 469 kts 179°
2026-05-07 00:17 -25.78255 -65.30793 29638 ft 481 kts 173°
2026-05-07 00:17 -25.81499 -65.29677 30074 ft 489 kts 170°
2026-05-07 00:17 -25.84687 -65.28445 30470 ft 493 kts 168°
2026-05-07 00:17 -25.87976 -65.27132 30880 ft 496 kts 169°
2026-05-07 00:18 -25.91188 -65.25863 31211 ft 500 kts 169°
2026-05-07 00:18 -25.94508 -65.24581 31595 ft 502 kts 170°
2026-05-07 00:18 -25.97821 -65.23328 32029 ft 503 kts 170°
2026-05-07 00:18 -26.01120 -65.22097 32587 ft 501 kts 171°
2026-05-07 00:19 -26.04435 -65.20869 33210 ft 497 kts 171°
2026-05-07 00:19 -26.07707 -65.19662 33794 ft 495 kts 171°
2026-05-07 00:19 -26.10977 -65.18458 34251 ft 494 kts 171°
2026-05-07 00:19 -26.14188 -65.17276 34659 ft 494 kts 172°
2026-05-07 00:20 -26.17457 -65.16071 35087 ft 494 kts 172°
2026-05-07 00:20 -26.20716 -65.14866 35561 ft 492 kts 172°
2026-05-07 00:20 -26.23978 -65.13658 36038 ft 491 kts 172°
2026-05-07 00:20 -26.27210 -65.12460 36469 ft 490 kts 172°
2026-05-07 00:21 -26.30455 -65.11257 36902 ft 490 kts 172°
2026-05-07 00:21 -26.33707 -65.10050 37358 ft 489 kts 172°
2026-05-07 00:21 -26.36925 -65.08855 37845 ft 488 kts 172°
2026-05-07 00:21 -26.40159 -65.07655 38216 ft 490 kts 173°
2026-05-07 00:22 -26.43407 -65.06452 38480 ft 493 kts 173°
2026-05-07 00:22 -26.46619 -65.05258 38818 ft 492 kts 173°
2026-05-07 00:22 -26.53178 -65.02823 38763 ft 500 kts 172°
2026-05-07 00:23 -26.59739 -65.00367 38738 ft 493 kts 173°
2026-05-07 00:23 -26.66208 -64.97948 38749 ft 490 kts 173°
2026-05-07 00:24 -26.72699 -64.95528 38736 ft 490 kts 173°
2026-05-07 00:24 -26.79157 -64.93114 38743 ft 490 kts 173°
2026-05-07 00:25 -26.85608 -64.90699 38739 ft 491 kts 173°
2026-05-07 00:25 -26.91038 -64.88665 38753 ft 492 kts 173°
2026-05-07 00:26 -26.98591 -64.85839 38730 ft 494 kts 173°
2026-05-07 00:26 -27.05128 -64.83389 38710 ft 495 kts 173°
2026-05-07 00:27 -27.10554 -64.81352 38701 ft 495 kts 173°
2026-05-07 00:27 -27.17082 -64.78897 38728 ft 496 kts 173°
2026-05-07 00:28 -27.23632 -64.76431 38703 ft 496 kts 173°
2026-05-07 00:28 -27.30183 -64.73961 38702 ft 495 kts 173°
2026-05-07 00:29 -27.36700 -64.71502 38699 ft 494 kts 173°
2026-05-07 00:30 -27.49769 -64.66563 38703 ft 495 kts 173°
2026-05-07 00:30 -27.56145 -64.63479 38716 ft 514 kts 160°
2026-05-07 00:31 -27.62304 -64.59298 38697 ft 518 kts 158°
2026-05-07 00:31 -27.68460 -64.55033 38703 ft 519 kts 159°
2026-05-07 00:32 -27.74619 -64.50842 38703 ft 519 kts 159°
2026-05-07 00:32 -27.80833 -64.46659 38699 ft 520 kts 159°
2026-05-07 00:33 -27.87079 -64.42455 38693 ft 521 kts 159°
2026-05-07 00:33 -27.93321 -64.38241 38696 ft 523 kts 159°
2026-05-07 00:34 -27.99520 -64.34048 38687 ft 523 kts 159°
2026-05-07 00:34 -28.05786 -64.29802 38685 ft 522 kts 159°
2026-05-07 00:35 -28.12033 -64.25564 38680 ft 522 kts 159°
2026-05-07 00:35 -28.18263 -64.21333 38685 ft 523 kts 159°
2026-05-07 00:36 -28.24464 -64.17116 38675 ft 523 kts 159°
2026-05-07 00:36 -28.30707 -64.12866 38680 ft 523 kts 159°
2026-05-07 00:37 -28.36961 -64.08607 38716 ft 524 kts 159°
2026-05-07 00:37 -28.43197 -64.04353 38662 ft 526 kts 159°
2026-05-07 00:38 -28.49474 -64.00062 38677 ft 526 kts 159°
2026-05-07 00:38 -28.55739 -63.95773 38673 ft 527 kts 159°
2026-05-07 00:39 -28.62008 -63.91476 38673 ft 527 kts 159°
2026-05-07 00:39 -28.68287 -63.87166 38668 ft 527 kts 159°
2026-05-07 00:40 -28.74574 -63.82844 38673 ft 527 kts 159°
2026-05-07 00:40 -28.80836 -63.78533 38673 ft 527 kts 159°
2026-05-07 00:41 -28.87123 -63.74177 38678 ft 528 kts 158°
2026-05-07 00:41 -28.93377 -63.69823 38672 ft 527 kts 158°
2026-05-07 00:42 -28.99634 -63.65465 38672 ft 527 kts 158°
2026-05-07 00:42 -29.05925 -63.61080 38698 ft 526 kts 158°
2026-05-07 00:43 -29.12182 -63.56711 38677 ft 526 kts 158°
2026-05-07 00:43 -29.18385 -63.52367 38674 ft 526 kts 158°
2026-05-07 00:44 -29.24643 -63.47976 38676 ft 525 kts 158°
2026-05-07 00:44 -29.30832 -63.43630 38692 ft 526 kts 158°
2026-05-07 00:45 -29.37071 -63.39241 38668 ft 525 kts 158°
2026-05-07 00:45 -29.43320 -63.34839 38670 ft 525 kts 158°
2026-05-07 00:46 -29.49504 -63.30473 38669 ft 525 kts 158°
2026-05-07 00:46 -29.55722 -63.26063 38674 ft 526 kts 158°
2026-05-07 00:47 -29.61971 -63.21621 38669 ft 527 kts 158°
2026-05-07 00:47 -29.68207 -63.17183 38663 ft 527 kts 158°
2026-05-07 00:48 -29.74412 -63.12762 38672 ft 528 kts 158°
2026-05-07 00:48 -29.80684 -63.08287 38664 ft 528 kts 158°
2026-05-07 00:49 -29.86887 -63.03854 38663 ft 528 kts 158°
2026-05-07 00:49 -29.93142 -62.99377 38661 ft 528 kts 158°
2026-05-07 00:50 -29.99369 -62.94914 38666 ft 529 kts 157°
2026-05-07 00:50 -30.05609 -62.90434 38662 ft 528 kts 157°
2026-05-07 00:51 -30.11858 -62.85941 38662 ft 528 kts 157°
2026-05-07 00:51 -30.18101 -62.81445 38683 ft 527 kts 157°
2026-05-07 00:52 -30.24347 -62.76941 38675 ft 527 kts 157°
2026-05-07 00:52 -30.30530 -62.72475 38665 ft 527 kts 157°
2026-05-07 00:53 -30.36738 -62.67985 38664 ft 526 kts 157°
2026-05-07 00:53 -30.42967 -62.63473 38665 ft 527 kts 157°
2026-05-07 00:54 -30.49164 -62.58975 38663 ft 527 kts 157°
2026-05-07 00:54 -30.55407 -62.54435 38662 ft 527 kts 157°
2026-05-07 00:55 -30.61562 -62.49953 38696 ft 526 kts 157°
2026-05-07 00:55 -30.67812 -62.45395 38666 ft 527 kts 157°
2026-05-07 00:56 -30.74022 -62.40858 38662 ft 527 kts 157°
2026-05-07 00:56 -30.80214 -62.36334 38664 ft 527 kts 157°
2026-05-07 00:57 -30.86431 -62.31832 38662 ft 527 kts 157°
2026-05-07 00:57 -30.92644 -62.27334 38667 ft 528 kts 157°
2026-05-07 00:58 -30.98872 -62.22807 38664 ft 528 kts 157°
2026-05-07 00:58 -31.05086 -62.18282 38691 ft 528 kts 157°
2026-05-07 00:59 -31.14461 -62.11436 38665 ft 528 kts 157°
2026-05-07 01:00 -31.20666 -62.06894 38663 ft 529 kts 157°
2026-05-07 01:00 -31.26883 -62.02288 38683 ft 530 kts 156°
2026-05-07 01:01 -31.33112 -61.97641 38674 ft 531 kts 156°
2026-05-07 01:01 -31.39362 -61.92975 38663 ft 531 kts 156°
2026-05-07 01:02 -31.45568 -61.88338 38698 ft 531 kts 156°
2026-05-07 01:02 -31.51787 -61.83689 38669 ft 532 kts 156°
2026-05-07 01:03 -31.58054 -61.78995 38668 ft 532 kts 156°
2026-05-07 01:03 -31.64303 -61.74307 38664 ft 532 kts 156°
2026-05-07 01:04 -31.70510 -61.69641 38674 ft 532 kts 155°
2026-05-07 01:04 -31.76722 -61.64966 38667 ft 533 kts 155°
2026-05-07 01:05 -31.82970 -61.60254 38668 ft 533 kts 155°
2026-05-07 01:05 -31.89231 -61.55527 38675 ft 534 kts 155°
2026-05-07 01:06 -31.95493 -61.50799 38673 ft 534 kts 155°
2026-05-07 01:06 -32.01702 -61.46107 38666 ft 534 kts 155°
2026-05-07 01:07 -32.07944 -61.41380 38695 ft 533 kts 155°
2026-05-07 01:07 -32.14224 -61.36616 38671 ft 533 kts 155°
2026-05-07 01:08 -32.20463 -61.31874 38646 ft 532 kts 155°
2026-05-07 01:08 -32.26645 -61.27167 38659 ft 531 kts 155°
2026-05-07 01:09 -32.32825 -61.22456 38676 ft 530 kts 155°
2026-05-07 01:09 -32.39000 -61.17740 38659 ft 529 kts 155°
2026-05-07 01:10 -32.45175 -61.13016 38663 ft 528 kts 155°
2026-05-07 01:10 -32.51367 -61.08272 38663 ft 527 kts 155°
2026-05-07 01:11 -32.57521 -61.03549 38625 ft 526 kts 155°
2026-05-07 01:11 -32.63609 -60.98867 38648 ft 524 kts 155°
2026-05-07 01:12 -32.69733 -60.94153 38668 ft 523 kts 155°
2026-05-07 01:12 -32.75738 -60.89342 38389 ft 517 kts 150°
2026-05-07 01:12 -32.78564 -60.86695 37914 ft 515 kts 148°
2026-05-07 01:13 -32.81330 -60.83979 37183 ft 519 kts 147°
2026-05-07 01:13 -32.83165 -60.82150 36656 ft 521 kts 146°
2026-05-07 01:13 -32.86876 -60.78449 35608 ft 525 kts 146°
2026-05-07 01:13 -32.89672 -60.75682 34895 ft 526 kts 146°
2026-05-07 01:14 -32.92495 -60.72913 34344 ft 522 kts 146°
2026-05-07 01:14 -32.95279 -60.70194 33931 ft 516 kts 146°
2026-05-07 01:14 -32.98042 -60.67503 33516 ft 510 kts 146°
2026-05-07 01:14 -32.99871 -60.65724 33200 ft 506 kts 146°
2026-05-07 01:15 -33.02590 -60.63084 32709 ft 501 kts 146°
2026-05-07 01:15 -33.05262 -60.60487 32215 ft 497 kts 146°
2026-05-07 01:15 -33.07944 -60.57879 31739 ft 493 kts 145°
2026-05-07 01:15 -33.10570 -60.55321 31324 ft 487 kts 145°
2026-05-07 01:16 -33.13198 -60.52758 30921 ft 481 kts 145°
2026-05-07 01:16 -33.15774 -60.50243 30550 ft 475 kts 145°
2026-05-07 01:16 -33.18324 -60.47752 30165 ft 470 kts 145°
2026-05-07 01:16 -33.20810 -60.45321 29773 ft 464 kts 144°
2026-05-07 01:17 -33.23322 -60.42863 29380 ft 459 kts 144°
2026-05-07 01:17 -33.25740 -60.40495 28992 ft 452 kts 144°
2026-05-07 01:17 -33.28177 -60.38107 28595 ft 446 kts 144°
2026-05-07 01:17 -33.30548 -60.35781 28215 ft 440 kts 144°
2026-05-07 01:18 -33.32918 -60.33455 27839 ft 435 kts 144°
2026-05-07 01:18 -33.35255 -60.31161 27453 ft 431 kts 144°
2026-05-07 01:18 -33.37557 -60.28899 27097 ft 426 kts 144°
2026-05-07 01:18 -33.39806 -60.26690 26760 ft 424 kts 144°
2026-05-07 01:19 -33.42091 -60.24442 26397 ft 423 kts 144°
2026-05-07 01:19 -33.44370 -60.22201 26033 ft 429 kts 144°
2026-05-07 01:19 -33.46718 -60.19892 25649 ft 437 kts 144°
2026-05-07 01:19 -33.49056 -60.17588 25265 ft 435 kts 144°
2026-05-07 01:20 -33.51372 -60.15300 24858 ft 430 kts 143°
2026-05-07 01:20 -33.53667 -60.13031 24505 ft 424 kts 143°
2026-05-07 01:20 -33.55896 -60.10829 24144 ft 418 kts 143°
2026-05-07 01:20 -33.58136 -60.08612 23796 ft 414 kts 143°
2026-05-07 01:21 -33.60344 -60.06424 23463 ft 409 kts 143°
2026-05-07 01:21 -33.62523 -60.04262 23372 ft 399 kts 143°
2026-05-07 01:21 -33.64672 -60.02130 23328 ft 408 kts 143°
2026-05-07 01:21 -33.66890 -59.99925 23096 ft 419 kts 143°
2026-05-07 01:22 -33.69133 -59.97688 22844 ft 423 kts 143°
2026-05-07 01:22 -33.71381 -59.95426 22571 ft 419 kts 142°
2026-05-07 01:22 -33.73558 -59.93131 22298 ft 416 kts 140°
2026-05-07 01:22 -33.75697 -59.90811 22043 ft 414 kts 140°
2026-05-07 01:23 -33.77821 -59.88488 21750 ft 411 kts 140°
2026-05-07 01:23 -33.79928 -59.86182 21519 ft 409 kts 140°
2026-05-07 01:23 -33.82040 -59.83877 21267 ft 408 kts 140°
2026-05-07 01:23 -33.84129 -59.81603 21011 ft 406 kts 140°
2026-05-07 01:24 -33.86233 -59.79318 20758 ft 405 kts 140°
2026-05-07 01:24 -33.88305 -59.77069 20523 ft 404 kts 140°
2026-05-07 01:24 -33.90388 -59.74809 20282 ft 403 kts 140°
2026-05-07 01:24 -33.92473 -59.72548 20041 ft 401 kts 140°
2026-05-07 01:25 -33.94557 -59.70285 19786 ft 400 kts 140°
2026-05-07 01:25 -33.96621 -59.68043 19568 ft 399 kts 139°
2026-05-07 01:25 -33.98673 -59.65811 19330 ft 399 kts 139°
2026-05-07 01:25 -34.00741 -59.63561 19098 ft 398 kts 139°
2026-05-07 01:26 -34.02771 -59.61351 18873 ft 397 kts 139°
2026-05-07 01:26 -34.04840 -59.59098 18617 ft 395 kts 139°
2026-05-07 01:26 -34.06841 -59.56917 18394 ft 393 kts 139°
2026-05-07 01:26 -34.08881 -59.54691 18159 ft 391 kts 139°
2026-05-07 01:27 -34.10886 -59.52503 17931 ft 390 kts 139°
2026-05-07 01:27 -34.12891 -59.50312 17678 ft 388 kts 139°
2026-05-07 01:27 -34.14883 -59.48133 17462 ft 387 kts 139°
2026-05-07 01:27 -34.16881 -59.45948 17200 ft 386 kts 139°
2026-05-07 01:28 -34.18849 -59.43793 16942 ft 383 kts 139°
2026-05-07 01:28 -34.20801 -59.41655 16664 ft 376 kts 139°
2026-05-07 01:28 -34.22725 -59.39546 16324 ft 371 kts 139°
2026-05-07 01:28 -34.24626 -59.37460 15993 ft 367 kts 139°
2026-05-07 01:29 -34.26519 -59.35384 15651 ft 363 kts 139°
2026-05-07 01:29 -34.28375 -59.33346 15335 ft 359 kts 139°
2026-05-07 01:29 -34.30212 -59.31327 15003 ft 355 kts 139°
2026-05-07 01:29 -34.32041 -59.29316 14693 ft 353 kts 139°
2026-05-07 01:30 -34.33839 -59.27339 14396 ft 355 kts 139°
2026-05-07 01:30 -34.35676 -59.25318 14074 ft 358 kts 139°
2026-05-07 01:30 -34.37528 -59.23279 13739 ft 363 kts 139°
2026-05-07 01:30 -34.39417 -59.21198 13402 ft 365 kts 139°
2026-05-07 01:31 -34.41273 -59.19150 13035 ft 361 kts 139°
2026-05-07 01:31 -34.43113 -59.17119 12685 ft 356 kts 139°
2026-05-07 01:31 -34.44929 -59.15113 12353 ft 352 kts 139°
2026-05-07 01:31 -34.46723 -59.13136 12029 ft 348 kts 139°
2026-05-07 01:32 -34.48509 -59.11161 11725 ft 344 kts 139°
2026-05-07 01:32 -34.50256 -59.09226 11402 ft 340 kts 139°
2026-05-07 01:32 -34.50815 -59.08605 11306 ft 339 kts 139°
2026-05-07 01:32 -34.52598 -59.06663 10993 ft 335 kts 142°
2026-05-07 01:33 -34.54408 -59.04914 10689 ft 331 kts 145°
2026-05-07 01:33 -34.56231 -59.03210 10373 ft 329 kts 145°
2026-05-07 01:33 -34.58046 -59.01527 10079 ft 330 kts 145°
2026-05-07 01:33 -34.59884 -58.99833 9915 ft 332 kts 145°
2026-05-07 01:34 -34.61738 -58.98129 9771 ft 332 kts 145°
2026-05-07 01:34 -34.63564 -58.96450 9572 ft 327 kts 145°
2026-05-07 01:34 -34.65383 -58.94776 9261 ft 324 kts 145°
2026-05-07 01:34 -34.67149 -58.93150 8980 ft 321 kts 145°
2026-05-07 01:35 -34.68942 -58.91496 8693 ft 318 kts 145°
2026-05-07 01:35 -34.70673 -58.89899 8420 ft 315 kts 145°
2026-05-07 01:35 -34.72418 -58.88288 8151 ft 312 kts 145°
2026-05-07 01:35 -34.74154 -58.86685 7883 ft 310 kts 145°
2026-05-07 01:36 -34.75840 -58.85127 7621 ft 307 kts 145°
2026-05-07 01:36 -34.77555 -58.83540 7362 ft 305 kts 145°
2026-05-07 01:36 -34.79235 -58.81985 7107 ft 303 kts 145°
2026-05-07 01:36 -34.80885 -58.80456 6849 ft 301 kts 145°
2026-05-07 01:37 -34.82545 -58.78916 6601 ft 300 kts 146°
2026-05-07 01:37 -34.84198 -58.77369 6355 ft 298 kts 146°
2026-05-07 01:37 -34.85841 -58.75824 6095 ft 298 kts 145°
2026-05-07 01:37 -34.87492 -58.74266 5830 ft 299 kts 146°
2026-05-07 01:38 -34.89122 -58.72729 5546 ft 299 kts 145°
2026-05-07 01:38 -34.90778 -58.71174 5271 ft 296 kts 145°
2026-05-07 01:38 -34.92381 -58.69672 5050 ft 293 kts 145°
2026-05-07 01:38 -34.94012 -58.68145 4808 ft 291 kts 145°
2026-05-07 01:39 -34.95595 -58.66667 4571 ft 289 kts 145°
2026-05-07 01:39 -34.97126 -58.65076 4324 ft 290 kts 134°
2026-05-07 01:39 -34.98480 -58.63248 4122 ft 289 kts 133°
2026-05-07 01:39 -34.99806 -58.61461 3999 ft 284 kts 134°
2026-05-07 01:40 -35.01119 -58.59655 3873 ft 280 kts 134°
2026-05-07 01:40 -35.02395 -58.57854 3729 ft 275 kts 133°
2026-05-07 01:40 -35.03550 -58.56081 3621 ft 270 kts 124°
2026-05-07 01:40 -35.04457 -58.54120 3582 ft 258 kts 120°
2026-05-07 01:41 -35.05335 -58.52233 3579 ft 252 kts 120°
2026-05-07 01:41 -35.06203 -58.50375 3536 ft 258 kts 120°
2026-05-07 01:41 -35.07025 -58.48356 3055 ft 270 kts 105°
2026-05-07 01:41 -35.07126 -58.46165 2999 ft 247 kts 71°
2026-05-07 01:42 -35.06431 -58.44393 3002 ft 221 kts 37°
2026-05-07 01:42 -35.05198 -58.43489 3015 ft 203 kts
2026-05-07 01:42 -35.03833 -58.43526 3013 ft 198 kts 345°
2026-05-07 01:42 -35.02470 -58.43809 3012 ft 198 kts 342°
2026-05-07 01:43 -35.01163 -58.44201 2981 ft 184 kts 332°
2026-05-07 01:43 -35.00079 -58.44894 2980 ft 170 kts 328°
2026-05-07 01:43 -34.99072 -58.45537 2999 ft 157 kts 328°
2026-05-07 01:43 -34.98138 -58.46117 2965 ft 145 kts 328°
2026-05-07 01:44 -34.97242 -58.46663 2813 ft 145 kts 330°
2026-05-07 01:44 -34.96449 -58.46938 2670 ft 152 kts 343°
2026-05-07 01:44 -34.95431 -58.47180 2449 ft 145 kts 336°
2026-05-07 01:44 -34.94521 -58.47632 2287 ft 137 kts 332°
2026-05-07 01:45 -34.93665 -58.48092 2081 ft 135 kts 330°
2026-05-07 01:45 -34.92791 -58.48493 1922 ft 132 kts 329°
2026-05-07 01:45 -34.91960 -58.48926 1747 ft 128 kts 328°
2026-05-07 01:45 -34.91147 -58.49349 1600 ft 124 kts 328°
2026-05-07 01:46 -34.90372 -58.49754 1431 ft 124 kts 328°
2026-05-07 01:46 -34.89524 -58.50074 1269 ft 129 kts 334°
2026-05-07 01:46 -34.88663 -58.50412 1094 ft 127 kts 333°
2026-05-07 01:46 -34.87810 -58.50749 930 ft 130 kts 333°
2026-05-07 01:47 -34.86983 -58.51106 773 ft 124 kts 332°
2026-05-07 01:47 -34.86177 -58.51465 635 ft 124 kts 337°
2026-05-07 01:47 -34.85338 -58.51830 470 ft 128 kts 344°
2026-05-07 01:47 -34.84486 -58.52115 300 ft 121 kts 344°
2026-05-07 01:48 -34.83686 -58.52385 217 ft 122 kts 345°
2026-05-07 01:48 -34.82868 -58.52685 110 ft 113 kts 345°
2026-05-07 01:48 -34.82190 -58.52910 80 ft 85 kts 341°
2026-05-07 01:48 -34.81737 -58.53075 74 ft 52 kts 345°
2026-05-07 01:49 -34.81501 -58.53153 81 ft 19 kts 344°
2026-05-07 01:49 -34.81373 -58.53196 84 ft 19 kts 345°
2026-05-07 01:49 -34.81252 -58.53247 83 ft 18 kts 340°
2026-05-07 01:49 -34.81173 -58.53329 84 ft 11 kts 278°
2026-05-07 01:50 -34.81167 -58.53408 74 ft 1 kts 274°
2026-05-07 01:50 -34.81167 -58.53418 75 ft 2 kts 275°
2026-05-07 01:50 -34.81166 -58.53428 77 ft 0 kts 275°
2026-05-07 01:52 -34.81163 -58.53460 76 ft 15 kts 276°
2026-05-07 01:52 -34.81195 -58.53587 75 ft 14 kts 202°
2026-05-07 01:52 -34.81294 -58.53589 68 ft 15 kts 179°
2026-05-07 01:52 -34.81396 -58.53603 74 ft 15 kts 192°
2026-05-07 01:53 -34.81461 -58.53598 69 ft 6 kts 110°
2026-05-07 01:53 -34.81472 -58.53546 72 ft 5 kts 109°
2026-05-07 01:53 -34.81476 -58.53533 72 ft 0 kts 109°